Shelbyville, IN

11:55 PM EDT on August 26, 2016 (GMT -0400)
Shelbyville Municipal

Weather History for KGEZ - December, 2014

Change the Weather History Date:

Tuesday, December 23, 2014

  Actual Average Record
Temperature  
Mean Temperature 53 °F 30 °F  
Max Temperature 57 °F 37 °F 65 °F (2015)
Min Temperature 48 °F 22 °F -2 °F (2000)
Degree Days  
Heating Degree Days 12 35  
Month to date heating degree days 658 744  
Since 1 July heating degree days 1842 1819  
Cooling Degree Days 0 0  
Month to date cooling degree days 0 0  
Year to date cooling degree days 1080 913  
Growing Degree Days 2 (Base 50)    
Moisture  
Dew Point 49 °F    
Average Humidity 81    
Maximum Humidity 89    
Minimum Humidity 72    
Precipitation  
Precipitation 0.17 in 0.12 in 1.37 in (2015)
Month to date precipitation 2.25 2.35  
Year to date precipitation 39.21 42.64  
Sea Level Pressure  
Sea Level Pressure 29.71 in    
Wind  
Wind Speed 8 mph (SE)    
Max Wind Speed 17 mph    
Max Gust Speed 21 mph    
Visibility 6 miles    
Events Rain    
T = Trace of Precipitation, MM = Missing Value Source: NWS Daily Summary

Daily Weather History Graph

Daily Weather History Graph

Search for Another Location

Airport or City:

Trip Planner

Search our weather history database for the weather conditions in past years. The results will help you decide how hot, cold, wet, or windy it might be!

Date:

Astronomy

Dec. 23, 2014 Rise Set
Actual Time 8:01 AM EST 5:23 PM EST
Civil Twilight 7:30 AM EST 5:53 PM EST
Nautical Twilight 6:56 AM EST 6:27 PM EST
Astronomical Twilight 6:24 AM EST 7:00 PM EST
Moon 9:05 AM EST (12/23) 7:37 PM EST (12/23)
Length of Visible Light 10h 23m
Length of Day
9h 22m
Waxing Crescent, 4% of the Moon is Illuminated
Dec 23
Waxing Crescent
Dec 28
First Quarter
Jan 4
Full
Jan 13
Last Quarter
Jan 20
New

Hourly Weather History & Observations

Time (EST) Temp. Dew Point Humidity Pressure Visibility Wind Dir Wind Speed Gust Speed Precip Events Conditions
12:53 AM 48.0 °F 43.0 °F 83% 29.67 in 10.0 mi SE 10.4 mph - 0.00 in   Overcast
1:11 AM 48.0 °F 44.1 °F 86% 29.66 in 5.0 mi SSE 11.5 mph - 0.04 in Rain Light Rain
1:53 AM 48.9 °F 45.0 °F 86% 29.66 in 10.0 mi SSE 11.5 mph - 0.04 in   Overcast
2:38 AM 50.0 °F 46.9 °F 89% 29.66 in 10.0 mi SSE 10.4 mph - N/A   Overcast
2:53 AM 50.0 °F 46.9 °F 89% 29.67 in 10.0 mi South 11.5 mph - N/A   Overcast
3:53 AM 51.1 °F 48.0 °F 89% 29.69 in 6.0 mi South 13.8 mph - 0.00 in Rain Light Rain
4:53 AM 51.1 °F 48.9 °F 92% 29.68 in 8.0 mi South 12.7 mph - 0.00 in   Overcast
5:53 AM 52.0 °F 48.9 °F 89% 29.69 in 6.0 mi South 11.5 mph - 0.00 in   Overcast
6:08 AM 52.0 °F 48.9 °F 89% 29.69 in 6.0 mi South 10.4 mph - N/A   Overcast
6:37 AM 52.0 °F 48.9 °F 89% 29.70 in 3.0 mi South 10.4 mph - 0.01 in Rain Light Rain
6:53 AM 52.0 °F 48.9 °F 89% 29.71 in 5.0 mi South 9.2 mph - 0.01 in   Overcast
7:53 AM 52.0 °F 48.9 °F 89% 29.73 in 4.0 mi South 9.2 mph - 0.01 in Rain Light Rain
8:53 AM 52.0 °F 50.0 °F 93% 29.75 in 4.0 mi South 10.4 mph - 0.00 in   Overcast
9:41 AM 53.1 °F 50.0 °F 89% 29.76 in 5.0 mi South 10.4 mph - N/A   Mostly Cloudy
9:53 AM 53.1 °F 50.0 °F 89% 29.77 in 6.0 mi South 11.5 mph - N/A   Overcast
10:46 AM 55.0 °F 51.1 °F 86% 29.79 in 8.0 mi South 10.4 mph - N/A   Overcast
10:53 AM 55.0 °F 52.0 °F 89% 29.80 in 8.0 mi South 11.5 mph - N/A   Overcast
11:00 AM 55.0 °F 51.1 °F 86% 29.79 in 8.0 mi SSW 10.4 mph - N/A   Overcast
11:28 AM 54.0 °F 51.1 °F 90% 29.79 in 9.0 mi SSW 9.2 mph - N/A   Overcast
11:51 AM 55.4 °F 50.0 °F 82% 29.78 in 10.0 mi SW 8.1 mph - N/A   Mostly Cloudy
11:53 AM 55.9 °F 50.0 °F 80% 29.78 in 10.0 mi SW 9.2 mph - N/A   Mostly Cloudy
12:09 PM 55.9 °F 50.0 °F 80% 29.77 in 10.0 mi SW 9.2 mph - N/A   Scattered Clouds
12:53 PM 55.9 °F 48.0 °F 75% 29.76 in 10.0 mi SW 8.1 mph - N/A   Scattered Clouds
1:09 PM 57.0 °F 48.0 °F 72% 29.75 in 10.0 mi SSW 8.1 mph - N/A   Mostly Cloudy
1:40 PM 57.0 °F 48.0 °F 72% 29.74 in 10.0 mi WSW 6.9 mph - N/A   Overcast
1:53 PM 57.0 °F 48.0 °F 72% 29.74 in 10.0 mi West 6.9 mph - N/A   Overcast
2:53 PM 55.9 °F 48.9 °F 77% 29.75 in 10.0 mi SW 3.5 mph - N/A   Overcast
3:53 PM 55.9 °F 48.9 °F 77% 29.75 in 10.0 mi Calm Calm - N/A   Overcast
4:44 PM 55.0 °F 48.9 °F 80% 29.75 in 10.0 mi Calm Calm - N/A   Overcast
4:53 PM 54.0 °F 48.9 °F 83% 29.75 in 10.0 mi East 3.5 mph - N/A   Overcast
5:00 PM 54.0 °F 48.9 °F 83% 29.75 in 10.0 mi Calm Calm - N/A   Overcast
5:53 PM 52.0 °F 48.0 °F 86% 29.75 in 10.0 mi ENE 4.6 mph - 0.00 in   Overcast
6:04 PM 52.0 °F 48.0 °F 86% 29.74 in 10.0 mi NE 4.6 mph - N/A   Overcast
6:53 PM 52.0 °F 48.0 °F 86% 29.74 in 10.0 mi ENE 4.6 mph - N/A   Overcast
7:53 PM 51.1 °F 48.9 °F 92% 29.72 in 4.0 mi ENE 5.8 mph - 0.01 in   Overcast
8:21 PM 52.0 °F 48.9 °F 89% 29.71 in 2.5 mi ENE 9.2 mph - N/A   Overcast
8:45 PM 52.0 °F 48.9 °F 89% 29.71 in 3.0 mi NNE 6.9 mph - N/A   Overcast
8:48 PM 51.8 °F 48.2 °F 88% 29.71 in 2.5 mi North 4.6 mph - N/A   Overcast
8:53 PM 51.1 °F 48.9 °F 92% 29.71 in 2.5 mi North 5.8 mph - N/A   Overcast
9:00 PM 51.1 °F 48.9 °F 92% 29.70 in 2.0 mi NNE 6.9 mph - N/A   Overcast
9:07 PM 51.1 °F 48.9 °F 92% 29.71 in 1.8 mi NNE 6.9 mph - N/A   Overcast
9:28 PM 51.1 °F 48.9 °F 92% 29.70 in 2.0 mi NNE 8.1 mph - 0.01 in Rain Light Rain
9:49 PM 51.8 °F 48.2 °F 88% 29.69 in 2.5 mi NNE 9.2 mph - 0.02 in Rain Light Rain
9:53 PM 51.1 °F 48.9 °F 92% 29.69 in 2.0 mi NNE 9.2 mph - 0.02 in Rain Light Rain
10:11 PM 51.1 °F 48.9 °F 92% 29.66 in 3.0 mi NE 8.1 mph - 0.01 in Rain Light Rain
10:22 PM 51.1 °F 48.0 °F 89% 29.66 in 2.5 mi NNE 11.5 mph - 0.01 in   Overcast
10:46 PM 51.1 °F 48.9 °F 92% 29.66 in 2.0 mi ENE 3.5 mph - 0.02 in   Overcast
10:51 PM 51.8 °F 48.2 °F 88% 29.66 in 1.8 mi Variable 4.6 mph - 0.02 in   Overcast
10:53 PM 51.1 °F 48.9 °F 92% 29.67 in 1.8 mi North 5.8 mph - 0.02 in   Overcast
11:16 PM 51.1 °F 48.9 °F 92% 29.66 in 2.0 mi North 4.6 mph - 0.02 in Rain Light Rain
11:26 PM 51.1 °F 48.9 °F 92% 29.65 in 2.0 mi NNE 5.8 mph - 0.04 in Rain Light Rain
11:34 PM 51.1 °F 48.9 °F 92% 29.66 in 1.8 mi North 4.6 mph - 0.05 in Rain Light Rain
11:39 PM 51.1 °F 48.9 °F 92% 29.66 in 2.0 mi North 5.8 mph - 0.05 in Rain Light Rain
11:51 PM 51.8 °F 48.2 °F 88% 29.64 in 3.0 mi North 5.8 mph - 0.06 in Rain Light Rain
11:53 PM 51.1 °F 48.9 °F 92% 29.64 in 2.5 mi North 6.9 mph - 0.06 in Rain Light Rain